AirNav   Air Wisconsin Up To $57,000 Bonus
 
 421 users online  

MO12 St Lukes Hospital West Heliport
Chesterfield, Missouri, USA

GOING TO CHESTERFIELD?


FAA INFORMATION EFFECTIVE 07 OCTOBER 2021

Location

FAA Identifier: MO12
Lat/Long: 38-39-01.0300N 090-30-11.5500W
38-39.017167N 090-30.192500W
38.6502861,-90.5032083
(estimated)
Elevation: 505 ft. / 154 m (estimated)
Variation: 02E (1985)
From city: 8 miles W of CHESTERFIELD, MO
Time zone: UTC -5 (UTC -6 during Standard Time)
Zip code: 63017

Heliport Operations

Heliport use: Private use, MEDICAL USE.
Activation date: 04/1991
Control tower: no
ARTCC: KANSAS CITY CENTER
FSS: SAINT LOUIS FLIGHT SERVICE STATION
Attendance: CONTINUOUS
Segmented circle: no
Lights: FOR PERIMETER LGTS CALL 314-434-1500.

Heliport Communications

WX ASOS at SUS (7 nm W): 134.8 (314-890-7255)
WX ASOS at STL (9 nm NE): PHONE 314-890-4790
WX ASOS at CPS (17 nm E): PHONE 618-332-0001
WX ASOS at SET (17 nm N): 118.075 (636-250-4590)

Nearby radio navigation aids

VOR radial/distance  VOR name  Freq  Var
STLr183/12.7ST LOUIS VORTAC117.4001E
FTZr092/22.1FORISTELL VORTAC110.8005E
TOYr255/27.9TROY VORTAC116.0004E

 
NDB name  Hdg/Dist  Freq  Var  ID
EAVES129/2.622701WFZ ..-. --..
SNOOP088/12.432601WSU ... ..-
CIVIC MEMORIAL236/25.526301WCVM -.-. ...- --

Heliport Services

Runway Information

Helipad H1

Dimensions: 35 x 35 ft. / 11 x 11 m
Surface: asphalt
Runway edge lights: PERI
Operational restrictions: APCH AND DEP PATH FROM 040 TO 170 DEGREES AND FROM 270 TO 300 DEGREES.
Latitude: 38-39.017167N
Longitude: 090-30.192500W
Elevation: 505.0 ft.
Traffic pattern: leftleft

Heliport Ownership and Management from official FAA records

Ownership: Privately-owned
Owner: ST LUKES HOSPITAL & DEVELOP C
232 SOUTH WOODSMILL ROAD
CHESTERFIELD, MO 63017
Phone 314-434-1500
EXT. 4452
Manager: RON BIRDSONG
232 SOUTH WOODMILL ROAD
CHESTERFIELD, MO 63017
Phone 314-205-6166

Heliport Operational Statistics

Aircraft based on the field: 1
Helicopters: 1
    

Additional Remarks

OWNER DESIRES ARPT NOT BE CHARTED.
FOR CD CTC ST LOUIS APCH AT 314-890-1018.

Instrument Procedures

There are no published instrument procedures at MO12.

Some nearby airports with instrument procedures:

1H0 - Creve Coeur Airport (5 nm N)
KSUS - Spirit of St Louis Airport (7 nm W)
KSTL - St Louis Lambert International Airport (9 nm NE)
KCPS - St Louis Downtown Airport (17 nm E)
KSET - St Charles County Smartt Airport (17 nm N)
 
Loc | Ops | Rwys | IFR | FBO | Links
Com | Nav | Svcs | Stats | Notes
Area around MO12 (St Lukes Hospital West Heliport)
 
Road maps at: MapQuest Bing Google
 
Aerial photo
No photo
 
Sectional chart

 
Airport distance calculator
Flying to St Lukes Hospital West Heliport? Find the distance to fly.

From to MO12

Sunrise and sunset
Times for 24-Oct-2021
 Local
(UTC-5)
 Zulu
(UTC)
Morning civil twilight06:5411:54
Sunrise07:2112:21
Sunset18:1123:11
Evening civil twilight18:3823:38

Current date and time
Zulu (UTC)  24-Oct-2021 07:06:06
Local (UTC-5)  24-Oct-2021 02:06:06
 
METAR
KSUS 
7nm W 
240654Z AUTO 10006KT 8SM OVC005 14/13 A2986 RMK AO2 SLP109 T01390128 $
KSTL 
9nm NE 
240651Z 12012KT 4SM BR OVC004 13/12 A2988 RMK AO2 LTG DSNT NE SLP115 T01330117
KSET 
17nm N 
240654Z AUTO 12010KT 6SM -RA BR OVC006 14/12 A2986 RMK AO2 LTG DSNT NE AND E TSE01 SLP109 P0001 T01390117 $
KCPS 
17nm E 
240653Z AUTO 11005KT 9SM OVC007 13/13 A2988 RMK AO2 LTG DSNT NE SLP118 T01280128 $
TAF
KSUS 
7nm W 
240520Z 2406/2506 09006KT 6SM -SHRA VCTS OVC008CB FM240700 12007KT 4SM BR VCSH OVC006 FM241000 15007KT P6SM OVC020 FM241200 18010G20KT P6SM BKN040 FM242200 19010G20KT P6SM VCTS BKN080CB FM250300 21011G23KT 3SM TSRA BKN050CB
KSTL 
9nm NE 
240520Z 2406/2512 VRB04KT 6SM -SHRA VCTS OVC005CB FM240700 12007KT 4SM BR VCSH OVC005 FM241000 15007KT P6SM OVC020 FM241200 18010G20KT P6SM BKN040 FM242200 19010G20KT P6SM VCTS BKN080CB FM250300 21011G23KT 3SM TSRA BKN050CB
KCPS 
17nm E 
240520Z 2406/2506 VRB03KT 6SM -SHRA VCTS OVC007CB FM240700 12007KT 4SM BR VCSH OVC007 FM241100 15007KT P6SM OVC020 FM241300 18010G20KT P6SM BKN040 FM242200 19010G20KT P6SM VCTS BKN080CB FM250300 21011G23KT 3SM TSRA BKN050CB
NOTAMs
Click for the latest NOTAMs
NOTAMs are issued by the DoD/FAA and will open in a separate window not controlled by AirNav.

 

 
 

Would you like to see your business listed on this page?

 If your business provides an interesting product or service to pilots, flight crews, aircraft, or users of the St Lukes Hospital West Heliport, you should consider listing it here.  To start the listing process, click on the button below
 
Add a business
 

Other Pages about St Lukes Hospital West Heliport

Update a link
 
Copyright © AirNav, LLC. All rights reserved. Privacy Policy  Contact